Weather History for KPYX - May, 2013

Change the Weather History Date:

Saturday, May 11, 2013

  Actual Average Record
Temperature  
Mean Temperature 58 °F -  
Max Temperature 75 °F 77 °F 95 °F (1967)
Min Temperature 43 °F 48 °F 33 °F (1979)
Degree Days  
Heating Degree Days 7    
Growing Degree Days 8 (Base 50)    
Moisture  
Dew Point 39 °F    
Average Humidity 49    
Maximum Humidity 82    
Minimum Humidity 26    
Precipitation  
Precipitation 0.00 in - - ()
Sea Level Pressure  
Sea Level Pressure 30.25 in    
Wind  
Wind Speed 8 mph (North)    
Max Wind Speed 20 mph    
Max Gust Speed 25 mph    
Visibility 10 miles    
Events      
Averages and records for this station are not official NWS values.
T = Trace of Precipitation, MM = Missing Value Source: NWS Daily Summary

Daily Weather History Graph

Daily Weather History Graph

Search for Another Location

Airport or City:

Trip Planner

Search our weather history database for the weather conditions in past years. The results will help you decide how hot, cold, wet, or windy it might be!

Date:

Astronomy

May. 11, 2013 Rise Set
Actual Time 6:39 AM CDT 8:39 PM CDT
Civil Twilight 6:11 AM CDT 9:08 PM CDT
Nautical Twilight 5:36 AM CDT 9:42 PM CDT
Astronomical Twilight 4:59 AM CDT 10:20 PM CDT
Moon 7:49 AM CDT (5/11) 10:20 PM CDT (5/11)
Length of Visible Light 14h 57m
Length of Day
14h 00m
Waxing Crescent, 3% of the Moon is Illuminated
May 11
Waxing Crescent
May 17
First Quarter
May 24
Full
May 31
Last Quarter
Jun 8
New

Hourly Weather History & Observations

Time (CDT) Temp. Windchill Dew Point Humidity Pressure Visibility Wind Dir Wind Speed Gust Speed Precip Events Conditions
12:15 AM 52.0 °F - 37.8 °F 58% 30.19 in 10.0 mi Calm Calm - N/A   Clear
12:35 AM 48.9 °F - 34.9 °F 58% 30.19 in 10.0 mi Calm Calm - N/A   Clear
12:55 AM 50.0 °F - 36.0 °F 59% 30.19 in 10.0 mi Calm Calm - N/A   Scattered Clouds
1:15 AM 48.7 °F - 35.4 °F 60% 30.21 in 10.0 mi West 4.6 mph - N/A   Scattered Clouds
1:35 AM 48.9 °F - 36.9 °F 63% 30.19 in 10.0 mi West 5.8 mph - N/A   Scattered Clouds
1:55 AM 48.0 °F - 36.5 °F 64% 30.21 in 10.0 mi West 6.9 mph - N/A   Clear
2:15 AM 45.5 °F 41.3 °F 34.9 °F 66% 30.19 in 10.0 mi WNW 8.1 mph - N/A   Clear
2:35 AM 46.4 °F 42.4 °F 36.1 °F 67% 30.20 in 10.0 mi WNW 8.1 mph - N/A   Clear
2:55 AM 46.4 °F 42.9 °F 36.5 °F 68% 30.21 in 10.0 mi WNW 6.9 mph - N/A   Clear
3:15 AM 45.7 °F 41.0 °F 36.9 °F 71% 30.21 in 10.0 mi WNW 9.2 mph - N/A   Clear
3:35 AM 45.3 °F 42.3 °F 36.7 °F 72% 30.21 in 10.0 mi WNW 5.8 mph - N/A   Clear
3:55 AM 45.7 °F 41.5 °F 38.3 °F 75% 30.21 in 10.0 mi WNW 8.1 mph - N/A   Clear
4:15 AM 45.9 °F 42.9 °F 37.9 °F 74% 30.21 in 10.0 mi NW 5.8 mph - N/A   Clear
4:35 AM 44.6 °F 40.7 °F 37.4 °F 76% 30.21 in 10.0 mi NW 6.9 mph - N/A   Clear
4:55 AM 43.9 °F 39.9 °F 37.4 °F 78% 30.21 in 10.0 mi NW 6.9 mph - N/A   Clear
5:15 AM 43.9 °F 39.9 °F 37.6 °F 78% 30.21 in 10.0 mi NW 6.9 mph - N/A   Clear
5:35 AM 43.5 °F 40.1 °F 37.6 °F 80% 30.21 in 10.0 mi WNW 5.8 mph - N/A   Clear
5:55 AM 43.7 °F 39.7 °F 38.3 °F 81% 30.21 in 10.0 mi NW 6.9 mph - N/A   Clear
6:15 AM 43.0 °F 38.2 °F 37.6 °F 81% 30.21 in 10.0 mi WNW 8.1 mph - N/A   Clear
6:35 AM 43.7 °F 39.7 °F 38.7 °F 82% 30.22 in 10.0 mi WNW 6.9 mph - N/A   Clear
6:55 AM 43.7 °F 39.7 °F 38.5 °F 82% 30.22 in 10.0 mi WNW 6.9 mph - N/A   Clear
7:15 AM 44.4 °F 40.5 °F 38.8 °F 81% 30.23 in 10.0 mi WNW 6.9 mph - N/A   Clear
7:35 AM 48.0 °F - 41.0 °F 77% 30.24 in 10.0 mi NW 6.9 mph - N/A   Clear
7:55 AM 51.3 °F - 42.4 °F 72% 30.25 in 10.0 mi NW 8.1 mph - N/A   Clear
8:15 AM 54.3 °F - 43.0 °F 66% 30.25 in 10.0 mi NNW 5.8 mph - N/A   Scattered Clouds
8:35 AM 58.1 °F - 43.7 °F 59% 30.26 in 10.0 mi NNW 8.1 mph - N/A   Mostly Cloudy
8:55 AM 60.8 °F - 43.7 °F 53% 30.26 in 10.0 mi NNW 10.4 mph - N/A   Scattered Clouds
9:15 AM 63.0 °F - 44.2 °F 50% 30.26 in 10.0 mi NNW 13.8 mph - N/A   Clear
9:35 AM 64.0 °F - 44.6 °F 49% 30.27 in 10.0 mi NNW 11.5 mph - N/A   Clear
9:55 AM 65.5 °F - 44.6 °F 47% 30.27 in 10.0 mi NNW 12.7 mph - N/A   Clear
10:15 AM 66.4 °F - 44.4 °F 45% 30.27 in 10.0 mi North 11.5 mph 20.7 mph N/A   Clear
10:35 AM 67.5 °F - 44.6 °F 44% 30.28 in 10.0 mi NNW 12.7 mph - N/A   Clear
10:55 AM 68.7 °F - 44.2 °F 41% 30.28 in 10.0 mi North 13.8 mph 19.6 mph N/A   Clear
11:15 AM 69.4 °F - 43.9 °F 40% 30.28 in 10.0 mi North 13.8 mph 20.7 mph N/A   Clear
11:35 AM 70.5 °F - 42.8 °F 37% 30.28 in 10.0 mi North 12.7 mph 23.0 mph N/A   Clear
11:55 AM 71.6 °F - 42.4 °F 35% 30.28 in 10.0 mi North 11.5 mph 20.7 mph N/A   Clear
12:15 PM 71.6 °F - 42.4 °F 35% 30.28 in 10.0 mi NE 16.1 mph 20.7 mph N/A   Clear
12:35 PM 72.5 °F - 42.1 °F 33% 30.28 in 10.0 mi NNE 15.0 mph 23.0 mph N/A   Clear
12:55 PM 72.7 °F - 41.7 °F 33% 30.29 in 10.0 mi North 15.0 mph 23.0 mph N/A   Clear
1:15 PM 73.6 °F - 41.9 °F 32% 30.29 in 10.0 mi NNE 13.8 mph 21.9 mph N/A   Clear
1:35 PM 72.3 °F - 41.0 °F 32% 30.29 in 10.0 mi NE 16.1 mph 23.0 mph N/A   Clear
1:55 PM 73.2 °F - 41.2 °F 31% 30.29 in 10.0 mi NE 18.4 mph 21.9 mph N/A   Scattered Clouds
2:15 PM 72.7 °F - 40.3 °F 31% 30.29 in 10.0 mi NNE 19.6 mph 25.3 mph N/A   Scattered Clouds
2:35 PM 73.2 °F - 40.1 °F 30% 30.29 in 10.0 mi NE 16.1 mph 23.0 mph N/A   Clear
2:55 PM 73.4 °F - 40.8 °F 31% 30.29 in 10.0 mi ENE 17.3 mph - N/A   Clear
3:15 PM 73.4 °F - 39.4 °F 29% 30.29 in 10.0 mi NE 12.7 mph 21.9 mph N/A   Clear
3:35 PM 73.8 °F - 39.0 °F 28% 30.28 in 10.0 mi NE 11.5 mph 24.2 mph N/A   Clear
3:55 PM 73.8 °F - 39.4 °F 29% 30.28 in 10.0 mi NE 10.4 mph 15.0 mph N/A   Clear
4:15 PM 73.6 °F - 39.0 °F 29% 30.27 in 10.0 mi ENE 11.5 mph 20.7 mph N/A   Clear
4:35 PM 73.8 °F - 37.9 °F 27% 30.27 in 10.0 mi NNE 17.3 mph 24.2 mph N/A   Scattered Clouds
4:55 PM 73.0 °F - 37.6 °F 28% 30.26 in 10.0 mi NNE 10.4 mph 24.2 mph N/A   Scattered Clouds
5:15 PM 73.9 °F - 36.7 °F 26% 30.26 in 10.0 mi North 9.2 mph 20.7 mph N/A   Clear
5:35 PM 73.4 °F - 36.9 °F 26% 30.26 in 10.0 mi ENE 15.0 mph 20.7 mph N/A   Scattered Clouds
5:55 PM 73.6 °F - 36.9 °F 26% 30.26 in 10.0 mi ENE 12.7 mph 20.7 mph N/A   Scattered Clouds
6:15 PM 73.2 °F - 36.1 °F 26% 30.26 in 10.0 mi North 11.5 mph - N/A   Scattered Clouds
6:35 PM 72.3 °F - 36.5 °F 27% 30.26 in 10.0 mi NE 12.7 mph 16.1 mph N/A   Clear
6:55 PM 71.8 °F - 36.5 °F 28% 30.26 in 10.0 mi ENE 11.5 mph - N/A   Clear
7:15 PM 70.9 °F - 36.7 °F 29% 30.26 in 10.0 mi ENE 11.5 mph - N/A   Clear
7:35 PM 69.4 °F - 36.5 °F 30% 30.25 in 10.0 mi ENE 8.1 mph - N/A   Clear
7:55 PM 68.9 °F - 36.5 °F 30% 30.26 in 10.0 mi East 9.2 mph - N/A   Clear
8:15 PM 67.1 °F - 36.1 °F 32% 30.26 in 10.0 mi East 9.2 mph - N/A   Clear
8:35 PM 64.4 °F - 36.0 °F 35% 30.27 in 10.0 mi East 6.9 mph - N/A   Clear
9:15 PM 59.7 °F - 36.3 °F 42% 30.28 in 10.0 mi East 8.1 mph - N/A   Clear
9:35 PM 57.9 °F - 36.1 °F 44% 30.28 in 10.0 mi East 6.9 mph - N/A   Clear
9:55 PM 56.8 °F - 36.5 °F 47% 30.28 in 10.0 mi East 8.1 mph - N/A   Clear
10:15 PM 55.4 °F - 35.8 °F 48% 30.29 in 10.0 mi East 8.1 mph - N/A   Clear
10:35 PM 55.2 °F - 36.0 °F 48% 30.29 in 10.0 mi ESE 5.8 mph - N/A   Clear
10:55 PM 53.6 °F - 36.0 °F 51% 30.30 in 10.0 mi ESE 8.1 mph - N/A   Clear
11:15 PM 50.7 °F - 35.6 °F 56% 30.30 in 10.0 mi ESE 6.9 mph - N/A   Clear
11:35 PM 52.0 °F - 36.0 °F 54% 30.29 in 10.0 mi ESE 9.2 mph - N/A   Clear
11:55 PM 51.3 °F - 36.0 °F 56% 30.29 in 10.0 mi East 6.9 mph - N/A   Clear